Wind_Speed
3 2 3 4 6 8 8 10 10 10 9 9 10 10 10 10 10 10 10 10 10 11 11 11 11 12 12 13 14 15 15 15 16 16 17 17 17 18 18 18 18 19 19 19 20 20 21 22 22
3 3 3 4 5 6 7 9 10 10 10 9 10 10 10 10 9 10 10 10 10 11 12 12 12 12 13 14 15 15 16 16 16 17 17 17 17 17 17 18 18 19 19 20 20 21 21 22 22
4 3 4 4 5 5 6 7 9 10 10 10 10 10 10 10 10 10 10 10 11 11 12 12 13 13 14 15 15 16 16 16 16 17 17 17 17 17 18 18 18 19 19 20 20 20 21 21 22
3 3 3 4 4 4 5 6 8 10 10 11 10 10 10 10 10 10 10 11 12 13 13 14 14 15 15 16 16 16 16 17 17 17 17 18 18 18 19 19 19 20 20 20 20 21 21 21 22
2 2 3 3 3 3 3 4 5 7 9 10 11 11 10 10 11 11 11 12 13 14 14 15 16 16 17 17 18 18 18 18 18 18 19 19 19 19 20 20 20 21 21 22 22 22 22 23 23
0 1 2 2 3 3 3 3 3 4 6 8 9 10 11 11 11 12 12 13 14 15 16 16 17 17 18 18 19 19 19 19 19 19 20 20 20 21 21 22 22 23 23 24 24 24 25 25 25
3 1 1 2 2 3 3 2 2 3 4 6 7 8 9 10 10 11 12 13 14 14 15 16 17 17 17 18 18 18 19 19 19 20 21 21 22 22 23 24 24 25 25 26 26 26 27 27 27
6 5 3 3 3 3 3 3 4 4 4 5 6 8 9 10 11 12 12 13 14 14 15 16 16 17 17 18 18 19 19 20 21 21 22 22 23 24 24 25 25 26 26 27 27 28 28 29 29
9 8 7 6 5 5 4 4 5 5 6 7 7 8 9 11 12 13 14 15 15 15 16 17 17 18 18 19 19 20 20 21 22 22 22 23 23 24 24 25 26 26 27 27 28 29 29 30 30
13 11 11 9 8 8 7 7 7 7 8 9 10 10 11 13 14 15 16 17 17 18 18 19 19 20 20 20 21 21 22 22 22 22 22 23 23 24 24 25 25 26 27 28 29 29 30 30 31
16 15 14 13 12 11 11 10 10 10 11 12 12 13 14 15 16 17 19 20 20 20 20 21 21 22 22 22 22 22 22 22 22 22 22 23 23 24 25 26 27 28 28 29 30 31 31 31 32
20 19 18 17 16 15 14 14 13 13 14 14 14 15 16 17 18 19 20 21 22 22 22 22 23 23 23 23 23 23 22 22 22 22 23 23 24 25 26 27 28 29 30 31 31 32 32 33 33
23 23 22 21 20 19 18 17 16 16 17 17 17 17 18 18 19 20 21 22 23 23 23 24 24 24 24 24 23 23 23 23 23 23 24 24 25 26 27 28 29 30 31 32 33 33 34 34 35
26 26 25 24 23 22 21 20 19 20 20 19 19 19 20 20 21 22 22 23 24 25 25 25 25 25 25 25 24 24 24 24 24 24 25 26 27 28 29 30 31 32 33 33 34 34 35 36 36
30 29 28 27 27 26 25 22 23 23 22 22 22 22 22 23 23 24 24 25 25 26 26 26 26 26 26 26 25 25 25 25 26 26 27 27 28 30 31 32 33 34 34 35 35 36 36 37 38
32 31 30 30 30 29 28 24 27 25 25 24 24 24 24 24 25 26 27 27 26 27 27 28 28 28 27 27 27 27 27 27 27 28 29 29 30 31 32 33 34 34 35 36 36 37 37 38 38
34 33 32 33 32 32 31 27 30 29 27 27 27 26 26 26 27 28 28 28 28 28 29 29 29 29 29 28 28 28 28 28 29 29 30 31 32 33 33 34 35 35 36 36 37 37 38 39 39
34 34 33 33 34 34 33 30 31 32 29 29 29 29 29 29 29 29 29 30 30 30 30 30 30 30 30 30 29 29 30 30 30 31 31 32 33 34 35 35 36 37 37 37 38 39 39 39 39
37 36 34 34 36 36 35 32 31 33 31 30 31 32 32 32 31 31 31 31 31 31 31 31 31 31 31 31 31 31 31 31 32 32 33 34 35 35 36 37 38 38 39 39 39 40 41 41 40
37 36 35 36 38 38 37 33 31 32 33 32 32 33 33 33 33 32 32 31 32 31 31 31 32 32 32 32 33 33 33 32 33 34 35 36 37 37 38 39 39 40 41 41 41 42 42 43 43
35 35 36 37 38 39 38 34 31 32 34 34 33 34 34 34 33 32 32 32 32 32 32 32 32 32 32 33 34 34 34 34 35 36 37 38 39 40 40 41 41 42 43 43 43 43 44 44 45
35 35 37 38 39 39 39 37 29 31 33 34 34 34 33 33 33 33 33 33 32 32 32 32 32 33 33 34 34 35 35 36 37 38 39 40 41 41 42 43 43 44 45 45 45 45 46 46 47
35 36 37 37 38 38 36 39 32 31 33 35 35 34 33 33 33 33 33 33 32 32 32 33 33 33 34 34 35 36 37 37 38 39 40 41 42 43 44 45 45 46 47 47 47 47 48 48 49
36 36 37 38 39 39 35 38 36 31 32 33 34 34 33 33 33 33 33 33 33 33 33 33 33 34 35 35 36 37 38 39 40 41 42 43 44 45 46 47 47 48 48 48 49 49 49 50 51
36 36 38 39 39 39 37 37 36 33 32 32 33 33 33 33 33 33 32 32 33 33 33 33 34 35 35 36 37 38 39 40 41 42 43 45 46 47 48 49 49 50 50 50 50 51 51 52 53
36 37 38 39 39 38 37 37 34 33 32 33 33 33 33 32 32 32 32 32 32 33 33 33 34 35 36 36 37 39 40 41 42 44 45 46 48 49 49 50 51 51 51 51 52 52 53 54 55
37 37 37 39 40 40 38 35 32 30 31 32 32 31 31 31 31 31 31 31 32 32 33 34 34 35 36 38 39 40 41 42 44 45 47 48 49 50 51 52 52 52 52 53 53 54 55 55 56
37 36 36 38 40 39 37 34 31 29 29 30 30 31 31 31 31 31 31 31 31 32 33 34 34 36 37 39 40 41 42 44 45 47 48 49 50 51 52 53 53 53 53 54 54 55 56 56 57
37 37 37 38 40 39 38 33 30 28 28 28 29 30 30 31 31 31 31 31 32 32 33 34 35 36 38 39 41 42 43 45 47 48 49 50 51 52 52 53 53 54 55 55 56 56 57 58 58
36 36 36 38 38 39 39 34 29 29 29 29 30 30 31 30 31 31 31 32 32 33 34 35 36 37 39 40 42 44 45 47 48 49 50 51 51 52 52 53 54 54 55 56 56 57 58 58 59
Wind_Direction
71 98 124 145 151 163 176 188 195 199 200 204 208 212 219 224 228 232 236 240 245 250 254 258 261 266 271 274 276 278 279 280 282 284 285 286 287 287 287 286 285 285 284 283 283 282 281 281 280
57 78 106 127 136 156 174 187 194 200 204 209 212 215 220 227 231 234 239 244 251 257 260 262 265 268 272 275 277 278 280 283 285 286 287 288 288 289 289 289 288 287 287 286 285 285 284 283 282
55 77 99 117 128 148 172 187 196 203 209 213 217 221 225 230 235 240 244 249 256 263 265 268 271 273 276 278 279 280 282 284 287 288 289 290 290 290 291 291 291 291 291 290 289 288 287 286 284
56 76 97 115 126 144 167 187 200 206 211 216 222 227 231 237 242 246 249 254 260 266 270 272 275 276 278 281 283 283 285 287 288 289 290 290 291 291 291 292 292 292 292 292 291 290 289 288 286
55 77 99 116 124 128 140 160 182 198 207 217 226 233 237 243 249 252 256 261 264 268 271 274 276 278 280 282 284 285 287 288 288 289 290 291 292 293 293 293 293 292 292 291 291 290 289 288 287
73 93 111 127 134 137 132 142 165 188 203 216 228 237 243 251 255 259 262 265 268 270 271 273 275 277 280 282 283 284 285 287 288 289 290 291 292 293 293 292 292 292 291 290 290 289 288 288 287
245 217 172 165 159 157 160 172 185 199 207 220 233 242 250 256 262 266 268 269 270 272 274 275 277 279 280 282 283 284 286 287 289 290 291 292 292 293 293 293 292 292 291 290 289 288 287 286 286
248 243 226 220 215 206 204 211 222 233 239 243 249 254 261 265 268 270 272 273 275 276 278 279 280 281 282 283 284 285 286 287 289 289 290 291 291 292 292 292 292 291 291 290 289 288 287 286 285
245 243 238 236 238 240 239 240 242 248 258 263 265 267 271 273 275 276 277 278 279 280 281 281 282 283 284 285 286 287 287 288 289 289 290 290 291 292 292 293 293 292 291 291 290 289 288 287 285
243 242 241 241 243 245 250 255 258 261 266 270 272 273 275 277 279 280 281 282 282 283 283 284 284 285 286 286 287 287 288 289 290 290 290 291 292 293 294 294 294 294 293 292 291 290 289 287 286
244 244 243 243 246 249 252 259 265 269 273 276 278 279 279 279 280 281 282 284 284 283 284 285 285 285 286 287 287 288 289 290 290 290 291 292 293 294 294 295 295 294 294 293 292 291 290 289 288
244 245 246 247 249 252 256 260 266 272 275 280 283 282 282 281 281 281 282 283 283 284 284 285 285 285 285 286 287 287 288 289 289 290 291 292 293 294 295 296 296 295 294 293 292 291 290 289 288
245 246 248 250 252 255 258 261 265 271 274 279 282 283 283 282 282 283 283 282 282 283 284 285 285 284 285 286 286 286 286 287 288 289 290 292 293 294 295 296 296 296 295 294 292 292 291 290 289
246 248 250 251 254 256 258 261 266 269 273 276 279 282 285 285 284 284 284 283 282 283 284 284 284 284 284 285 285 285 286 287 288 289 290 291 293 294 295 296 296 296 295 295 294 293 292 291 291
246 249 251 253 254 257 259 262 265 267 271 274 276 280 284 285 285 284 284 284 282 282 282 282 283 283 283 283 284 284 286 287 288 289 290 291 292 294 295 296 296 296 296 295 294 293 292 291 291
247 248 251 253 255 257 260 263 266 267 270 272 275 279 282 283 284 284 284 283 282 281 281 282 282 282 281 281 282 283 285 286 287 289 290 291 292 294 295 296 296 296 295 294 294 293 292 292 291
248 249 250 254 256 259 260 262 267 268 269 271 274 278 280 282 283 283 283 283 282 281 281 281 280 280 280 281 281 282 283 285 287 288 290 291 292 293 294 295 296 296 295 295 294 293 292 292 291
249 250 251 254 257 258 260 262 266 269 269 271 274 277 279 280 282 283 282 281 281 280 279 279 279 279 279 280 280 281 283 285 286 287 288 290 291 293 294 295 296 296 296 295 295 294 293 292 291
250 251 253 255 257 259 260 262 264 268 270 272 275 277 279 280 281 282 281 281 281 280 279 279 278 277 278 278 279 281 282 284 285 287 288 290 291 293 294 295 296 296 296 295 295 294 293 292 291
252 253 254 255 258 260 261 262 263 266 270 272 275 278 279 280 282 281 281 280 280 280 279 278 277 277 277 278 279 280 282 283 285 287 289 290 292 293 295 296 296 296 296 296 295 294 293 292 290
253 255 255 255 257 261 262 260 262 265 268 271 274 276 279 280 280 280 281 280 280 280 278 277 276 276 276 278 279 280 282 284 286 288 289 290 292 294 296 296 297 297 297 297 296 295 294 292 291
254 255 256 257 258 261 264 264 259 263 267 270 273 275 278 278 279 279 280 280 280 279 278 276 275 275 276 277 278 281 282 284 286 288 290 291 293 295 296 297 298 298 298 298 298 296 295 293 292
253 254 256 258 259 261 264 267 263 262 265 269 272 274 276 277 278 279 279 279 279 277 276 275 274 275 276 277 279 281 283 285 287 289 291 293 294 295 296 297 298 298 298 298 298 297 296 294 293
254 255 257 258 260 262 263 267 269 266 266 269 271 273 274 275 277 277 278 278 277 276 274 273 274 275 276 277 279 281 283 286 288 290 292 293 294 295 296 298 298 299 299 298 298 297 296 295 294
254 256 258 259 260 263 264 265 269 271 270 270 271 273 274 275 276 276 276 276 275 274 273 273 274 275 276 278 280 282 285 287 289 291 293 294 295 296 297 298 299 299 299 299 298 297 297 296 295
252 254 257 261 262 264 265 266 269 272 272 271 272 272 273 274 275 275 275 274 273 273 272 273 274 275 277 279 281 284 286 288 290 292 294 295 296 297 298 299 300 300 300 299 298 298 298 297 296
250 254 258 261 264 265 266 269 270 272 272 272 272 271 272 272 273 273 273 272 272 272 272 273 275 276 278 281 283 286 288 290 292 293 295 296 297 298 299 300 300 300 300 299 299 299 298 298 297
250 253 256 260 264 268 269 270 273 272 272 271 271 271 271 271 272 272 272 271 272 273 274 275 277 278 280 283 285 287 290 291 293 295 296 297 298 299 299 300 300 300 300 300 300 300 299 299 298
251 253 256 259 263 268 271 272 274 275 272 270 270 270 271 271 270 271 271 272 273 275 276 277 279 281 283 285 287 289 291 293 294 296 297 298 299 299 300 300 300 300 300 300 300 300 300 300 299
251 254 257 260 264 266 269 271 272 272 270 270 270 270 270 270 271 272 273 274 275 277 278 279 281 283 285 287 289 290 292 294 296 297 298 298 299 300 300 301 301 301 301 301 301 301 301 300 300
Height
5857 5857 5858 5860 5862 5863 5864 5866 5867 5869 5870 5872 5873 5874 5875 5877 5878 5881 5879 5879 5879 5879 5879 5879 5879 5879 5879 5878 5878 5877 5877 5876 5875 5875 5874 5873 5872 5872 5871 5870 5869 5869 5868 5867 5866 5866 5865 5864 5864
5858 5859 5860 5861 5862 5863 5864 5865 5866 5868 5870 5871 5872 5873 5874 5875 5876 5877 5877 5877 5878 5878 5878 5878 5877 5877 5877 5876 5876 5875 5874 5873 5873 5872 5871 5870 5869 5869 5868 5867 5866 5866 5865 5864 5863 5862 5862 5861 5860
5859 5860 5861 5862 5862 5863 5864 5865 5866 5867 5869 5870 5871 5872 5873 5874 5874 5875 5875 5876 5876 5876 5876 5876 5876 5875 5875 5874 5873 5873 5872 5871 5870 5869 5868 5867 5867 5866 5865 5864 5863 5863 5862 5861 5860 5859 5859 5858 5857
5860 5861 5862 5863 5862 5863 5863 5864 5865 5866 5868 5869 5870 5871 5872 5872 5873 5873 5874 5874 5874 5874 5874 5874 5873 5873 5872 5872 5871 5870 5869 5868 5867 5867 5866 5865 5864 5863 5862 5861 5861 5860 5859 5858 5857 5856 5856 5855 5854
5861 5862 5862 5862 5863 5863 5864 5864 5865 5866 5867 5868 5869 5869 5870 5871 5871 5871 5872 5872 5872 5872 5872 5871 5871 5871 5870 5869 5868 5868 5867 5865 5864 5864 5863 5862 5861 5860 5859 5858 5857 5857 5856 5855 5854 5853 5852 5852 5851
5861 5862 5863 5863 5863 5863 5864 5864 5865 5866 5867 5867 5868 5868 5869 5869 5869 5870 5870 5870 5870 5870 5869 5869 5868 5868 5867 5866 5865 5864 5863 5862 5861 5860 5859 5858 5857 5856 5856 5855 5854 5853 5852 5851 5850 5849 5849 5848 5847
5861 5861 5862 5862 5863 5863 5864 5864 5865 5866 5866 5867 5867 5867 5867 5867 5867 5867 5867 5867 5867 5867 5867 5866 5865 5865 5864 5863 5862 5861 5860 5859 5858 5857 5856 5855 5854 5853 5852 5851 5850 5849 5848 5847 5846 5845 5844 5843 5842
5859 5861 5861 5862 5862 5863 5863 5864 5865 5865 5866 5866 5866 5866 5866 5866 5866 5865 5865 5865 5865 5865 5864 5863 5863 5862 5861 5860 5859 5858 5857 5855 5854 5853 5852 5851 5850 5848 5847 5846 5845 5844 5843 5842 5841 5840 5839 5838 5837
5858 5860 5860 5860 5861 5862 5862 5863 5864 5864 5865 5865 5865 5865 5865 5864 5864 5863 5863 5862 5862 5862 5861 5860 5860 5859 5858 5857 5855 5854 5853 5852 5850 5849 5848 5847 5845 5844 5843 5842 5840 5839 5838 5837 5835 5834 5833 5832 5831
5856 5857 5858 5859 5859 5860 5860 5861 5862 5863 5863 5863 5863 5863 5863 5863 5862 5861 5860 5860 5859 5859 5858 5857 5856 5855 5854 5853 5852 5850 5849 5847 5846 5845 5843 5842 5841 5840 5838 5837 5835 5834 5833 5831 5830 5829 5827 5826 5825
5852 5854 5855 5856 5856 5857 5858 5859 5859 5860 5861 5861 5861 5861 5860 5860 5859 5858 5857 5856 5856 5855 5854 5853 5852 5851 5850 5849 5847 5846 5845 5843 5842 5840 5839 5838 5836 5835 5833 5832 5830 5829 5827 5826 5824 5823 5822 5820 5819
5849 5850 5851 5852 5853 5854 5855 5856 5857 5857 5858 5858 5858 5858 5857 5857 5856 5855 5854 5853 5852 5851 5850 5849 5848 5847 5846 5844 5843 5842 5840 5839 5837 5836 5834 5833 5831 5830 5828 5827 5825 5823 5821 5820 5818 5817 5815 5814 5812
5844 5845 5847 5848 5850 5851 5852 5852 5853 5854 5854 5854 5854 5854 5853 5853 5852 5851 5850 5849 5847 5846 5845 5844 5843 5842 5841 5840 5838 5837 5835 5834 5833 5831 5830 5828 5827 5825 5823 5821 5819 5817 5815 5813 5812 5810 5808 5807 5805
5839 5841 5842 5844 5845 5846 5847 5849 5850 5850 5850 5850 5850 5849 5849 5848 5848 5847 5846 5845 5843 5842 5841 5840 5838 5837 5836 5835 5833 5832 5830 5829 5828 5826 5825 5823 5821 5819 5817 5815 5813 5811 5809 5807 5805 5803 5801 5799 5797
5834 5836 5838 5839 5840 5841 5843 5845 5845 5844 5845 5845 5845 5845 5844 5844 5843 5842 5841 5840 5838 5837 5836 5834 5833 5832 5831 5829 5828 5827 5825 5824 5822 5821 5819 5817 5815 5813 5811 5809 5807 5805 5802 5800 5798 5796 5793 5791 5789
5828 5830 5832 5833 5834 5835 5838 5841 5839 5839 5840 5840 5840 5839 5839 5838 5838 5836 5835 5834 5833 5832 5830 5829 5828 5826 5825 5824 5822 5821 5820 5818 5817 5815 5813 5812 5810 5807 5805 5803 5800 5798 5795 5793 5791 5788 5786 5784 5782
5822 5824 5826 5827 5828 5829 5831 5834 5833 5833 5834 5834 5834 5834 5833 5833 5832 5831 5830 5829 5828 5826 5825 5823 5822 5821 5819 5818 5817 5815 5814 5812 5811 5809 5807 5805 5803 5801 5799 5796 5793 5791 5788 5786 5783 5781 5779 5776 5774
5815 5817 5819 5821 5821 5822 5824 5827 5827 5826 5828 5828 5828 5827 5827 5826 5826 5825 5824 5822 5821 5820 5819 5817 5816 5815 5813 5812 5811 5809 5808 5806 5805 5803 5801 5799 5797 5794 5792 5789 5787 5784 5781 5778 5776 5773 5770 5768 5766
5808 5810 5813 5814 5813 5815 5817 5820 5821 5820 5821 5822 5821 5821 5820 5820 5819 5818 5817 5816 5815 5814 5813 5811 5810 5808 5807 5806 5805 5803 5802 5800 5798 5796 5794 5792 5790 5787 5785 5782 5779 5776 5773 5770 5767 5764 5762 5759 5757
5801 5803 5806 5807 5806 5807 5810 5813 5815 5814 5814 5815 5815 5814 5813 5813 5812 5811 5811 5809 5808 5807 5806 5804 5803 5802 5801 5799 5798 5797 5795 5793 5792 5790 5787 5785 5782 5780 5777 5774 5771 5768 5765 5762 5759 5756 5752 5749 5747
5794 5796 5798 5799 5799 5800 5802 5807 5809 5808 5807 5808 5808 5807 5807 5806 5805 5804 5803 5803 5802 5800 5799 5798 5796 5795 5794 5793 5791 5790 5788 5786 5785 5783 5780 5777 5775 5772 5769 5766 5763 5759 5756 5753 5749 5746 5743 5739 5736
5787 5789 5790 5791 5792 5793 5795 5797 5804 5802 5801 5800 5800 5800 5799 5799 5798 5797 5796 5795 5795 5793 5792 5791 5789 5788 5787 5786 5784 5783 5781 5779 5777 5775 5772 5770 5767 5764 5760 5757 5754 5750 5747 5743 5740 5736 5732 5729 5725
5780 5781 5782 5783 5784 5786 5788 5788 5796 5795 5794 5793 5793 5793 5792 5792 5791 5790 5789 5788 5787 5786 5785 5784 5782 5781 5780 5778 5777 5775 5774 5772 5770 5767 5764 5761 5758 5755 5752 5748 5744 5741 5737 5733 5729 5725 5721 5718 5714
5772 5774 5775 5776 5777 5780 5783 5781 5785 5787 5787 5786 5785 5785 5785 5784 5784 5783 5782 5781 5780 5779 5778 5777 5775 5774 5772 5771 5769 5768 5766 5764 5761 5759 5756 5753 5749 5746 5742 5738 5734 5730 5726 5722 5718 5714 5710 5706 5702
5766 5768 5768 5769 5770 5772 5774 5775 5777 5778 5779 5778 5778 5777 5777 5776 5776 5775 5775 5774 5773 5772 5771 5769 5768 5767 5765 5764 5762 5760 5758 5756 5753 5750 5747 5744 5740 5736 5732 5728 5724 5720 5715 5711 5707 5702 5698 5694 5689
5759 5760 5762 5762 5763 5764 5766 5767 5771 5771 5770 5770 5769 5769 5769 5769 5768 5768 5767 5767 5766 5765 5763 5762 5761 5759 5758 5756 5754 5752 5750 5747 5744 5741 5738 5734 5730 5726 5722 5717 5713 5708 5704 5699 5695 5690 5685 5681 5676
5751 5753 5755 5754 5754 5755 5758 5761 5764 5763 5762 5762 5762 5761 5761 5761 5761 5760 5760 5759 5758 5757 5756 5755 5753 5752 5750 5748 5746 5744 5741 5739 5735 5732 5728 5724 5720 5715 5711 5706 5702 5697 5692 5687 5682 5678 5673 5668 5662
5745 5746 5747 5747 5746 5747 5750 5753 5756 5755 5755 5755 5754 5754 5754 5754 5753 5753 5752 5752 5751 5750 5749 5747 5746 5744 5742 5740 5738 5735 5733 5730 5726 5722 5718 5714 5709 5705 5700 5695 5690 5685 5680 5675 5670 5665 5659 5654 5648
5738 5739 5740 5740 5741 5741 5742 5748 5748 5748 5747 5747 5747 5746 5746 5746 5746 5745 5745 5744 5743 5742 5741 5740 5738 5736 5734 5732 5729 5726 5723 5720 5716 5712 5707 5703 5698 5693 5688 5683 5678 5673 5668 5662 5657 5652 5646 5640 5634
5729 5731 5733 5734 5735 5734 5734 5741 5741 5740 5740 5739 5739 5739 5739 5739 5739 5738 5737 5737 5736 5734 5733 5732 5730 5728 5725 5723 5720 5717 5713 5709 5705 5701 5696 5691 5687 5681 5676 5671 5666 5660 5655 5649 5644 5638 5632 5626 5620